Regional Weather Roundup
Issued by NWS Upton, NY

Home | Current Version | Previous Version | Text Only | Print | Product List | Glossary On
Versions: 1 2 3 4 5 6 7 8 9 10 11 12 13 14 15 16 17 18 19 20 21 22 23 24 25 26 27 28 29 30 31 32 33 34 35 36 37 38 39 40 41 42 43 44 45 46 47 48 49 50
000
ASUS41 KOKX 030705
RWROKX
REGIONAL WEATHER ROUNDUP
NATIONAL WEATHER SERVICE NEW YORK NY
300 AM EDT WED SEP 03 2014

NOTE: "FAIR" INDICATES FEW OR NO CLOUDS BELOW 12,000 FEET WITH NO
SIGNIFICANT WEATHER AND/OR OBSTRUCTIONS TO VISIBILITY.

NYZ071-072-176-178-NJZ106-104-030800-
NEW YORK CITY METRO AREA


CITY           SKY/WX    TMP DP  RH WIND       PRES   REMARKS
CENTRAL PARK   CLEAR     78  62  57 VRB6      29.89R
LAGUARDIA APRT PTCLDY    76  64  66 NW15G22   29.84R
KENNEDY INTL   MOCLDY    78  63  59 W14       29.85S
NEWARK/LIBERTY PTCLDY    76  62  62 NW14G21   29.86R
BRNX BOT. GARD   N/A     75  63  64 W5        29.86F
TETERBORO      CLEAR     75  62  64 NW9       29.85R
$$

NYZ177-179-078>081-030800-
LONG ISLAND NEW YORK

CITY           SKY/WX    TMP DP  RH WIND       PRES   REMARKS
FARMINGDALE    PTCLDY    77  66  68 W10       29.84R
ISLIP          MOCLDY    77  66  68 W9        29.80S
SHIRLEY        MOCLDY    77  67  71 W10       29.82R
WESTHAMPTON    MOCLDY    78  67  68 W13G21    29.82
MONTAUK POINT    N/A     78  69  73 SW9G18    29.79R
$$

NYZ052-065-067-030800-
HUDSON VALLEY

CITY           SKY/WX    TMP DP  RH WIND       PRES   REMARKS
WHITE PLAINS   CLEAR     73  63  70 W16G22    29.85R
NEWBURGH       CLEAR     70  64  83 W13       29.87S
MONTGOMERY     CLEAR     67  63  87 S3        29.87R
POUGHKEEPSIE   PTCLDY    73  62  68 W9        29.84R
ALBANY         CLOUDY    67  62  84 NW8       29.87R
$$

NJZ001-105-106-008-010-013-015-019>022-104-030800-
NEW JERSEY

CITY           SKY/WX    TMP DP  RH WIND       PRES   REMARKS
NEWARK/LIBERTY PTCLDY    76  62  62 NW14G21   29.86R
TETERBORO      CLEAR     75  62  64 NW9       29.85R
CALDWELL       PTCLDY    73  61  65 W5        29.88R
MORRISTOWN     CLEAR     73  63  68 W3        29.88R
SOMERVILLE     PTCLDY    73  66  78 NW3       29.86S
LINDEN         FAIR      79  67  66 NW10G16   29.88R
SUSSEX         CLEAR     69  63  81 CALM      29.89R
ANDOVER          N/A     68  63  84 CALM      29.91R
TRENTON        PTCLDY    74  65  73 W6        29.89R
MILLVILLE      MOCLDY    72  70  93 SW5       29.90S
ATLANTIC CITY  PTCLDY    72  69  90 MISG      29.89S
WRIGHTSTOWN    PTCLDY    73  69  87 W6        29.86S
TOMS RIVER     PTCLDY    72  68  88 W3        29.88S
BELMAR         PTCLDY    73  64  73 W8        29.87S
$$

PAZ047>061-062-071-030800-
EASTERN PENNSYLVANIA

CITY           SKY/WX    TMP DP  RH WIND       PRES   REMARKS
PHILADELPHIA   LGT RAIN  76  69  79 W9        29.90S
ALLENTOWN      CLEAR     70  63  78 W6        29.91R
SCRANTON       MOCLDY    67  64  90 CALM      29.94R
$$

CTZ002-004>006-009-010-012-RIZ004-006-007-MAZ004-011-015-030800-
SOUTHERN NEW ENGLAND
 IN CT

CITY           SKY/WX    TMP DP  RH WIND       PRES   REMARKS
BRADLEY INTL   MOCLDY    74  64  71 NW17G23   29.79R
HARTFORD       MOCLDY    76  63  64 NW13G22   29.79R
DANBURY        MOCLDY    73  64  73 W3        29.85R
WTRBRY/OXFORD  PTCLDY    73  63  68 NW12G21   29.86R
BRIDGEPORT     PTCLDY    77  65  66 W12G20    29.81R
MERIDEN        CLOUDY    77  62  59 NW20G28   29.81R
NEW HAVEN      PTCLDY    80  66  62 W7G17     29.80R
CHESTER        FAIR      77  68  73 W9        29.80R
GROTON         MOCLDY    77  69  76 W15G23    29.76R
WILLIMANTIC    MOCLDY    78  68  71 NW13G21   29.77R

 IN RI

CITY           SKY/WX    TMP DP  RH WIND       PRES   REMARKS
PROVIDENCE     PTCLDY    78  70  76 W10G20    29.74R
BLOCK ISLAND   CLEAR     73  66  78 SW18G25   29.77S
WESTERLY       PTCLDY    77  68  73 W14G23    29.77R

 IN MA

CITY           SKY/WX    TMP DP  RH WIND       PRES   REMARKS
BOSTON         MOCLDY    78  71  79 SW18G25   29.71R
WORCESTER      MOCLDY    71  66  84 W18G24    29.78R
WESTFIELD      PTCLDY    73  63  70 W10G23    29.80R
PROVINCETOWN   CLEAR     72  68  88 S13       29.72F
NANTUCKET      CLEAR     72  69  90 SW13      29.77F
$$

ANZ330-335-338-340-345-350-353-355-030800-
COASTAL MARINE OBSERVATIONS


STATION/POSITION TIME  SKY/WX   TEMP    WIND        PRES    VSBY  WAVE
                                AIR SEA DIR/SP/G                  HT/PER
                 (UTC)          (F)     (DEG/KT/KT) (MB)    (MI)  (FT/S)
NY HARB ENTRANCE NOT AVBL
4S FIRE IS       NOT AVBL
23SW MTP         0700                                 N/A           5/ 5
HUDSON CANYON    0600            76 75  240/ 12/ 14 1010.8          4/ 5
EXECUTION ROCKS  0700            76 74  290/ 16/ 21   N/A
WESTERN LI SOUND 0700            77     290/ 14/ 17   N/A           1/ 3
CENTRAL LI SOUND 0600            77 75  240/ 21/ 25   N/A           3/ 4
EASTERN LI SOUND 0600            76 71  240/ 19/ 25   N/A
ROBBINS REEF     0700            77     310/ 17/ 21   N/A
$$


>>>>>>>>>>>>>>>>>>>>>>>>>>>> KEY <<<<<<<<<<<<<<<<<<<<<<<<<<<
>                                                          <
>     SKY/WX - SKY CONDITION/PRESENT WEATHER               <
>     TMP    - TEMPERATURE IN FAHRENHEIT                   <
>     DP     - DEWPOINT IN FAHRENHEIT                      <
>     RH     - RELATIVE HUMIDITY IN PERCENT                <
>     WIND   - DIRECTION AND SPEED IN MPH                  <
>     PRES   - MEAN SEA LEVEL PRESSURE IN INCHES OF HG     <
>     WCI    - WIND CHILL INDEX                            <
>     VSB    - VISIBILITY IN MILES                         <
>     HX     - HEAT INDEX                                  <
>     TC     - TEMPERATURE IN CELSIUS                      <
>     VRB    - VARIABLE WIND DIRECTION                     <
>                                                          <
>>>>>>>>>>>>>>>>>>>>>>>>>>>> KEY <<<<<<<<<<<<<<<<<<<<<<<<<<<




USA.gov is the U.S. government's official web portal to all federal, state and local government web resources and services.